User: anonymous   Login
Location: Caltech
(34.1382°N, 118.1253°W)
Time: 03:27:35
(UTC-07:00)
Language:

Iridium 62 - Orbit

View from above orbital plane
View from above orbital plane
View from above satellite
View from above satellite

Ground track
Ground track

The orbit data is extracted from the following two-line orbital elements,

1 25285U 98021A   16125.23062510  .00000276  00000-0  91579-4 0  9996
2 25285  86.3998  34.8752 0002045  83.0354 277.1074 14.34217532946403
Epoch (UTC): 04 May 2016 05:32:06
Eccentricity: 0.0002045
inclination: 86.3998°
perigee height: 776 km
apogee height: 779 km
right ascension of ascending node: 34.8752°
argument of perigee: 83.0354°
revolutions per day: 14.34217532
mean anomaly at epoch: 277.1074°
orbit number at epoch: 94640

The dashed part of the orbit path shows where the satellite is in the earth's shadow,  

DLR